Wichita, KS

2:01 AM CST on December 10, 2019 (GMT -0600)
Wichita Eisenhower National Airport

Weather History for KICT - November, 2019

Change the Weather History Date:

Tuesday, November 12, 2019

  Actual Average Record
Temperature  
Mean Temperature 21 °F 47 °F  
Max Temperature 33 °F 58 °F 82 °F (1894)
Min Temperature 8 °F 36 °F 8 °F (2019)
Degree Days  
Heating Degree Days 44 18  
Month to date heating degree days 275 183  
Since 1 July heating degree days 622 469  
Cooling Degree Days 0 0  
Month to date cooling degree days 0 0  
Year to date cooling degree days 1881 1684  
Moisture  
Dew Point 5 °F    
Average Humidity 52    
Maximum Humidity 76    
Minimum Humidity 28    
Precipitation  
Precipitation 0.00 in 0.05 in 2.92 in (1909)
Month to date precipitation 0.01 0.67  
Year to date precipitation 39.70 30.68  
Snow  
Snow 0.00 in 0.10 in 2.00 in (2018)
Month to date snowfall T 0.2  
Since 1 July snowfall 0.4 0.3  
Since 1 September snowfall 0.4 0.3  
Snow Depth 0.00 in    
Sea Level Pressure  
Sea Level Pressure 30.55 in    
Wind  
Wind Speed 10 mph (SSW)    
Max Wind Speed 21 mph    
Max Gust Speed 27 mph    
Visibility 10 miles    
Events      
T = Trace of Precipitation, MM = Missing Value Source: NWS Daily Summary

Daily Weather History Graph

Daily Weather History Graph

Search for Another Location

Airport or City:

Astronomy

Nov. 12, 2019 Rise Set
Actual Time 7:06 AM CST 5:20 PM CST
Civil Twilight 6:38 AM CST 5:48 PM CST
Nautical Twilight 6:07 AM CST 6:20 PM CST
Astronomical Twilight 5:36 AM CST 6:51 PM CST
Moon 5:48 PM CST (11/12) 7:00 AM CST (11/12)
Length of Visible Light 11h 10m
Length of Day
10h 14m
Full, 100% of the Moon is Illuminated
Nov 12
Full
Nov 19
Last Quarter
Nov 26
New
Dec 4
First Quarter
Dec 11
Full

Hourly Weather History & Observations

Time (CST) Temp. Windchill Dew Point Humidity Pressure Visibility Wind Dir Wind Speed Gust Speed Precip Events Conditions
12:53 AM 15.1 °F 4.2 °F 5.0 °F 64% 30.76 in 10.0 mi North 8.1 mph - N/A   Clear
1:53 AM 12.0 °F 0.5 °F 3.9 °F 70% 30.77 in 10.0 mi NW 8.1 mph - N/A   Clear
2:53 AM 12.0 °F 0.5 °F 3.9 °F 70% 30.76 in 10.0 mi NNW 8.1 mph - N/A   Clear
3:53 AM 10.9 °F 1.4 °F 3.9 °F 73% 30.74 in 10.0 mi NNW 5.8 mph - N/A   Clear
4:53 AM 10.9 °F 0.2 °F 3.0 °F 70% 30.73 in 10.0 mi NNW 6.9 mph - N/A   Clear
5:53 AM 10.0 °F 1.8 °F 1.9 °F 70% 30.72 in 10.0 mi NNW 4.6 mph - N/A   Clear
6:53 AM 8.1 °F 1.4 °F 1.9 °F 76% 30.73 in 10.0 mi West 3.5 mph - N/A   Clear
7:53 AM 10.9 °F - 5.0 °F 77% 30.72 in 10.0 mi Calm Calm - N/A   Clear
8:53 AM 16.0 °F - 7.0 °F 68% 30.71 in 10.0 mi Calm Calm - N/A   Clear
9:53 AM 19.9 °F 12.1 °F 8.1 °F 60% 30.68 in 10.0 mi South 5.8 mph - N/A   Clear
10:53 AM 23.0 °F 13.9 °F 7.0 °F 50% 30.66 in 10.0 mi SSW 8.1 mph - N/A   Clear
11:53 AM 26.1 °F 16.2 °F 6.1 °F 43% 30.62 in 10.0 mi South 10.4 mph 16.1 mph N/A   Clear
12:53 PM 28.9 °F 19.8 °F 6.1 °F 38% 30.57 in 10.0 mi South 10.4 mph 19.6 mph N/A   Clear
1:53 PM 30.9 °F 22.2 °F 5.0 °F 33% 30.51 in 10.0 mi South 10.4 mph - N/A   Clear
2:53 PM 33.1 °F 23.4 °F 3.0 °F 28% 30.44 in 10.0 mi South 13.8 mph 25.3 mph N/A   Clear
3:53 PM 33.1 °F 23.0 °F 3.9 °F 29% 30.41 in 10.0 mi South 15.0 mph - N/A   Partly Cloudy
4:53 PM 30.9 °F 19.8 °F 3.9 °F 32% 30.40 in 10.0 mi South 16.1 mph - N/A   Partly Cloudy
5:53 PM 28.0 °F 17.0 °F 3.9 °F 36% 30.38 in 10.0 mi South 13.8 mph - N/A   Scattered Clouds
6:53 PM 26.1 °F 16.2 °F 6.1 °F 43% 30.38 in 10.0 mi South 10.4 mph - N/A   Mostly Cloudy
7:53 PM 25.0 °F 13.1 °F 7.0 °F 46% 30.36 in 10.0 mi South 13.8 mph - N/A   Partly Cloudy
8:53 PM 25.0 °F 14.2 °F 8.1 °F 49% 30.32 in 10.0 mi South 11.5 mph - N/A   Clear
9:53 PM 25.0 °F 12.2 °F 9.0 °F 51% 30.29 in 10.0 mi South 16.1 mph - N/A   Clear
10:53 PM 25.0 °F 13.6 °F 9.0 °F 51% 30.25 in 10.0 mi South 12.7 mph 23.0 mph N/A   Clear
11:53 PM 24.1 °F 10.1 °F 9.0 °F 53% 30.22 in 10.0 mi South 18.4 mph - N/A   Clear